• In Hungary
  • List of Countries
  • For 7 days
  • Water Temperature
  • Satellite Maps
  • Weather Map
  • News
  • Weather Widgets
  • user-avatar
    Login

    Hourly Weather Mescheryakovka

    Today, 23 July, Monday

    Time Temperature Precipitation Wind Pressure Humidity
    00:00 +17°C° 0 mm 7 mps 746 mmHg 54%
    01:00 +16°C° 0 mm 6 mps 746 mmHg 54%
    02:00 +15°C° 0 mm 6 mps 746 mmHg 57%
    03:00 +15°C° 0 mm 6 mps 746 mmHg 59%
    04:00 +14°C° 0 mm 6 mps 746 mmHg 61%
    05:00 +14°C° 0 mm 6 mps 747 mmHg 61%
    06:00 +15°C° 0 mm 6 mps 747 mmHg 61%
    07:00 +15°C° 0 mm 7 mps 747 mmHg 61%
    08:00 +16°C° 0 mm 7 mps 747 mmHg 57%
    09:00 +18°C° 0 mm 7 mps 747 mmHg 52%
    10:00 +20°C° 0 mm 6 mps 748 mmHg 48%
    11:00 +21°C° 0 mm 6 mps 748 mmHg 45%
    12:00 +22°C° 0 mm 6 mps 748 mmHg 42%
    13:00 +24°C° 0 mm 6 mps 747 mmHg 39%
    14:00 +24°C° 0 mm 6 mps 747 mmHg 38%
    15:00 +24°C° 0 mm 6 mps 747 mmHg 37%
    16:00 +26°C° 0 mm 5 mps 747 mmHg 36%
    17:00 +25°C° 0 mm 5 mps 747 mmHg 39%
    18:00 +23°C° 0 mm 5 mps 747 mmHg 43%
    19:00 +23°C° 0 mm 4 mps 747 mmHg 46%
    20:00 +21°C° 0 mm 4 mps 748 mmHg 50%
    21:00 +20°C° 0 mm 4 mps 748 mmHg 54%
    22:00 +18°C° 0 mm 4 mps 748 mmHg 58%
    23:00 +18°C° 0 mm 4 mps 748 mmHg 59%

    Tomorrow, 24 July, Tuesday

    Time Temperature Precipitation Wind Pressure Humidity
    00:00 +17°C° 0 mm 4 mps 749 mmHg 61%
    01:00 +15°C° 0 mm 4 mps 749 mmHg 62%
    02:00 +15°C° 0 mm 4 mps 749 mmHg 64%
    03:00 +15°C° 0 mm 4 mps 749 mmHg 66%
    04:00 +14°C° 0 mm 3 mps 749 mmHg 68%
    05:00 +16°C° 0 mm 3 mps 749 mmHg 66%
    06:00 +17°C° 0 mm 4 mps 750 mmHg 64%
    07:00 +18°C° 0 mm 4 mps 750 mmHg 62%
    08:00 +20°C° 0 mm 4 mps 750 mmHg 55%
    09:00 +22°C° 0 mm 4 mps 750 mmHg 49%
    10:00 +25°C° 0 mm 4 mps 750 mmHg 43%
    11:00 +26°C° 0 mm 4 mps 750 mmHg 41%
    12:00 +28°C° 0 mm 4 mps 750 mmHg 38%
    13:00 +29°C° 0 mm 4 mps 750 mmHg 36%
    14:00 +29°C° 0 mm 4 mps 750 mmHg 36%
    15:00 +30°C° 0 mm 4 mps 749 mmHg 35%
    16:00 +30°C° 0 mm 4 mps 749 mmHg 35%
    17:00 +29°C° 0 mm 4 mps 749 mmHg 39%
    18:00 +29°C° 0 mm 3 mps 749 mmHg 44%
    19:00 +28°C° 0 mm 3 mps 749 mmHg 48%
    20:00 +26°C° 0 mm 3 mps 749 mmHg 53%
    21:00 +25°C° 0 mm 3 mps 750 mmHg 57%
    22:00 +22°C° 0 mm 3 mps 750 mmHg 62%
    23:00 +21°C° 0 mm 3 mps 750 mmHg 66%

    Day after tomorrow, 25 July, Wednesday

    Time Temperature Precipitation Wind Pressure Humidity
    00:00 +21°C° 0 mm 3 mps 750 mmHg 70%
    01:00 +20°C° 0 mm 3 mps 750 mmHg 74%
    02:00 +20°C° 0 mm 3 mps 750 mmHg 74%
    03:00 +19°C° 0 mm 3 mps 751 mmHg 75%
    04:00 +19°C° 0 mm 3 mps 751 mmHg 75%
    05:00 +20°C° 0 mm 3 mps 751 mmHg 70%
    06:00 +21°C° 0 mm 3 mps 751 mmHg 65%
    07:00 +24°C° 0 mm 3 mps 751 mmHg 60%
    08:00 +26°C° 0 mm 3 mps 751 mmHg 53%
    09:00 +27°C° 0 mm 3 mps 751 mmHg 46%
    10:00 +29°C° 0 mm 3 mps 751 mmHg 39%
    11:00 +30°C° 0 mm 4 mps 751 mmHg 36%
    12:00 +32°C° 0 mm 4 mps 751 mmHg 34%
    13:00 +33°C° 0 mm 4 mps 751 mmHg 31%
    14:00 +32°C° 0 mm 4 mps 751 mmHg 32%
    15:00 +32°C° 0 mm 4 mps 751 mmHg 33%
    16:00 +32°C° 0 mm 4 mps 751 mmHg 35%
    17:00 +30°C° 0 mm 4 mps 751 mmHg 38%
    18:00 +30°C° 0 mm 4 mps 751 mmHg 41%
    19:00 +29°C° 0 mm 3 mps 751 mmHg 45%
    20:00 +27°C° 0 mm 3 mps 751 mmHg 48%
    21:00 +26°C° 0 mm 3 mps 751 mmHg 50%
    22:00 +24°C° 0 mm 3 mps 751 mmHg 53%
    23:00 +24°C° 0 mm 3 mps 751 mmHg 56%

    26 July, Thursday

    Time Temperature Precipitation Wind Pressure Humidity
    00:00 +22°C° 0 mm 3 mps 751 mmHg 59%
    01:00 +21°C° 0 mm 3 mps 752 mmHg 63%
    02:00 +21°C° 0 mm 3 mps 752 mmHg 64%
    03:00 +20°C° 0 mm 3 mps 752 mmHg 66%
    04:00 +20°C° 0 mm 3 mps 752 mmHg 67%
    05:00 +21°C° 0 mm 4 mps 752 mmHg 65%
    06:00 +21°C° 0 mm 4 mps 752 mmHg 62%
    07:00 +22°C° 0 mm 5 mps 753 mmHg 59%
    08:00 +25°C° 0 mm 5 mps 753 mmHg 54%
    09:00 +26°C° 0 mm 5 mps 753 mmHg 48%
    10:00 +28°C° 0 mm 5 mps 753 mmHg 42%
    11:00 +29°C° 0 mm 6 mps 752 mmHg 39%
    12:00 +30°C° 0 mm 6 mps 752 mmHg 36%
    13:00 +30°C° 0 mm 6 mps 752 mmHg 34%
    14:00 +32°C° 0 mm 6 mps 752 mmHg 34%
    15:00 +32°C° 0 mm 6 mps 752 mmHg 34%
    16:00 +32°C° 0 mm 6 mps 752 mmHg 33%
    17:00 +30°C° 0 mm 5 mps 752 mmHg 37%
    18:00 +30°C° 0 mm 4 mps 752 mmHg 41%
    19:00 +29°C° 0 mm 4 mps 752 mmHg 45%
    20:00 +27°C° 0 mm 4 mps 752 mmHg 50%
    21:00 +26°C° 0 mm 4 mps 752 mmHg 55%
    22:00 +23°C° 0 mm 4 mps 752 mmHg 60%
    23:00 +23°C° 0 mm 4 mps 752 mmHg 60%

    27 July, Friday

    Time Temperature Precipitation Wind Pressure Humidity
    00:00 +22°C° 0 mm 4 mps 752 mmHg 60%
    01:00 +22°C° 0 mm 3 mps 752 mmHg 61%
    02:00 +21°C° 0 mm 3 mps 752 mmHg 61%
    03:00 +21°C° 0 mm 3 mps 752 mmHg 61%
    04:00 +20°C° 0 mm 3 mps 752 mmHg 62%
    05:00 +21°C° 0 mm 3 mps 752 mmHg 59%
    06:00 +22°C° 0 mm 3 mps 752 mmHg 57%
    07:00 +24°C° 0 mm 3 mps 752 mmHg 54%
    08:00 +26°C° 0 mm 4 mps 752 mmHg 48%
    09:00 +28°C° 0 mm 4 mps 752 mmHg 43%
    10:00 +30°C° 0 mm 4 mps 752 mmHg 37%
    11:00 +32°C° 0 mm 4 mps 752 mmHg 34%
    12:00 +33°C° 0 mm 4 mps 752 mmHg 32%
    13:00 +33°C° 0 mm 4 mps 752 mmHg 29%
    14:00 +34°C° 0 mm 4 mps 751 mmHg 29%
    15:00 +34°C° 0 mm 4 mps 751 mmHg 29%
    16:00 +34°C° 0 mm 4 mps 751 mmHg 29%
    17:00 +33°C° 0 mm 4 mps 751 mmHg 33%
    18:00 +31°C° 0 mm 3 mps 751 mmHg 37%
    19:00 +30°C° 0 mm 3 mps 751 mmHg 41%
    20:00 +29°C° 0 mm 3 mps 751 mmHg 45%
    21:00 +27°C° 0 mm 3 mps 751 mmHg 50%
    22:00 +25°C° 0 mm 3 mps 751 mmHg 54%
    23:00 +25°C° 0 mm 3 mps 751 mmHg 58%

    28 July, Saturday

    Time Temperature Precipitation Wind Pressure Humidity
    00:00 +24°C° 0 mm 3 mps 751 mmHg 61%
    01:00 +22°C° 0 mm 3 mps 751 mmHg 65%
    02:00 +23°C° 0 mm 2 mps 751 mmHg 65%
    03:00 +21°C° 0 mm 2 mps 750 mmHg 66%
    04:00 +21°C° 0 mm 2 mps 750 mmHg 66%
    05:00 +23°C° 0 mm 2 mps 750 mmHg 63%
    06:00 +24°C° 0 mm 2 mps 751 mmHg 59%
    07:00 +25°C° 0 mm 2 mps 751 mmHg 56%
    08:00 +27°C° 0 mm 2 mps 750 mmHg 51%
    09:00 +29°C° 0 mm 2 mps 750 mmHg 45%
    10:00 +30°C° 0 mm 2 mps 750 mmHg 40%
    11:00 +31°C° 0 mm 2 mps 750 mmHg 37%
    12:00 +32°C° 0 mm 2 mps 750 mmHg 34%
    13:00 +34°C° 0 mm 3 mps 749 mmHg 32%
    14:00 +34°C° 0 mm 3 mps 749 mmHg 32%
    15:00 +34°C° 0 mm 3 mps 749 mmHg 33%
    16:00 +33°C° 0 mm 3 mps 749 mmHg 34%
    17:00 +33°C° 0 mm 3 mps 749 mmHg 38%
    18:00 +31°C° 0 mm 3 mps 748 mmHg 42%
    19:00 +30°C° 0 mm 3 mps 748 mmHg 46%
    20:00 +29°C° 0 mm 3 mps 748 mmHg 50%
    21:00 +27°C° 0 mm 3 mps 748 mmHg 54%
    22:00 +26°C° 0 mm 3 mps 748 mmHg 58%
    23:00 +25°C° 0 mm 3 mps 748 mmHg 62%
    Show more